sat.trackr.live / text

‹ back to catalog

STARLINK-33827

NORAD 63798 · 2025-091Z

PAYLOAD ACTIVE UNKNOWN

§ Identity

Operator
Country
US
Launch date
2025-05-02
Launch site
AFETR
Launch vehicle
Mass (kg)
RCS (m²)

Purposes: comms

External: N2YO · Heavens-Above · Gunter

§ Orbital elements

Epoch: 2026-09-20T19:33:27.686592Z

Period
94.27 min
Inclination
43.0050°
Eccentricity
0.0001754
Mean motion
15.27587528 rev/d
Perigee alt
481.8 km
Apogee alt
484.2 km
Semi-major
6,861.2 km
B*
5.2323e-4
RAAN
30.5938°
Arg perigee
264.8909°
Mean anomaly
95.1742°
Rev number
7,874

§ Raw data

STARLINK-338271 63798U 25091Z   26263.81490378  .00014167  00000+0  52323-3 0  99952 63798  43.0050  30.5938 0001754 264.8909  95.1742 15.27587528 78744

JSON: /api/v1/satellites/63798 · /tle

For live sub-satellite position, see the globe view (requires WebGL).

§ Visibility from observer

Set your observer location to see the next 7 days of passes ≥ 10°. The values pass through the URL so the page stays shareable.

No JS? Fill the form by hand. The geolocation button needs JavaScript.